Tracking 30685 objects as of 17-Jun-2025
HD Live streaming from Space Station
objects crossing your sky now

NOAA 16 DEB

Track NOAA 16 DEB now!
10-day predictions


NORAD ID: 42406
Int'l Code: 2000-055TA
Perigee: 824.0 km
Apogee: 845.8 km
Inclination: 98.6 °
Period: 101.5 minutes
Semi major axis: 7205 km
RCS: Unknown
Launch date: September 21, 2000
Source: United States (US)
Launch site: AIR FORCE WESTERN TEST RANGE (AFWTR)

Note: This is SATELLITE DEBRIS
Your satellite tracking list
Your tracking list is empty




NASA's NSSDC Master Catalog

Two Line Element Set (TLE):
1 42406U 00055TA  25167.41462387  .00000949  00000-0  47235-3 0  9998
2 42406  98.6121 229.1373 0015119 292.5073  67.4502 14.19275561477112
Source of the keplerian elements: AFSPC